| time (UTC) | temp F | wind direction | speed MPH | gust MPH | rain 1hr in | rain 24hr in | rain mn in | humidity % | barometer mb |
| 20260510152107 | 72 | 360 | 3.0 | 4.0 | 0.00 | 0.13 | 0.13 | 89 | 1012.1 |
| 20260510151107 | 71 | 69 | 2.0 | 7.0 | 0.00 | 0.13 | 0.13 | 89 | 1012.0 |
| 20260510150107 | 70 | 47 | 4.0 | 11.0 | 0.00 | 0.13 | 0.13 | 89 | 1011.8 |
| 20260510145107 | 70 | 74 | 7.0 | 8.0 | 0.00 | 0.13 | 0.13 | 89 | 1011.5 |
| 20260510144106 | 69 | 13 | 3.0 | 5.0 | 0.00 | 0.13 | 0.13 | 91 | 1011.3 |
| 20260510143107 | 68 | 111 | 3.0 | 6.0 | 0.00 | 0.13 | 0.13 | 91 | 1011.0 |
| 20260510142110 | 68 | 98 | 2.0 | 6.0 | 0.00 | 0.13 | 0.13 | 91 | 1011.6 |
| 20260510141107 | 68 | 42 | 2.0 | 5.0 | 0.00 | 0.13 | 0.13 | 91 | 1011.9 |
| 20260510140106 | 67 | 43 | 0.0 | 5.0 | 0.00 | 0.13 | 0.13 | 92 | 1011.6 |
| 20260510135107 | 67 | 209 | 0.0 | 4.0 | 0.00 | 0.13 | 0.13 | 92 | 1011.9 |
| 20260510134107 | 66 | 209 | 0.0 | 0.0 | 0.00 | 0.13 | 0.13 | 92 | 1011.9 |
| 20260510133107 | 66 | 209 | 0.0 | 2.0 | 0.00 | 0.13 | 0.13 | 92 | 1012.2 |
| 20260510132107 | 66 | 209 | 1.0 | 3.0 | 0.00 | 0.14 | 0.13 | 92 | 1012.3 |
| 20260510131107 | 66 | 209 | 0.0 | 0.0 | 0.00 | 0.14 | 0.13 | 92 | 1012.6 |
| 20260510130107 | 65 | 209 | 0.0 | 0.0 | 0.00 | 0.14 | 0.13 | 91 | 1012.5 |
| 20260510125107 | 65 | 209 | 0.0 | 3.0 | 0.00 | 0.14 | 0.13 | 91 | 1012.1 |
| 20260510124107 | 65 | 209 | 2.0 | 4.0 | 0.00 | 0.14 | 0.13 | 91 | 1011.6 |
| 20260510123107 | 65 | 211 | 1.0 | 2.0 | 0.01 | 0.14 | 0.13 | 91 | 1011.3 |
| 20260510122107 | 65 | 211 | 0.0 | 3.0 | 0.01 | 0.14 | 0.13 | 90 | 1011.4 |
| 20260510121107 | 65 | 211 | 2.0 | 5.0 | 0.01 | 0.14 | 0.13 | 90 | 1011.0 |
| 20260510120107 | 65 | 184 | 1.0 | 4.0 | 0.01 | 0.14 | 0.13 | 90 | 1011.0 |
| 20260510115107 | 65 | 265 | 0.0 | 6.0 | 0.02 | 0.14 | 0.13 | 90 | 1011.3 |
| 20260510113107 | 66 | 250 | 3.0 | 6.0 | 0.02 | 0.13 | 0.12 | 91 | 1011.1 |
| 20260510111107 | 67 | 206 | 0.0 | 3.0 | 0.03 | 0.13 | 0.12 | 91 | 1011.6 |
| 20260510110107 | 67 | 206 | 2.0 | 6.0 | 0.04 | 0.13 | 0.12 | 91 | 1011.8 |
| 20260510105107 | 67 | 192 | 1.0 | 6.0 | 0.04 | 0.12 | 0.11 | 91 | 1011.9 |
| 20260510104107 | 67 | 167 | 6.0 | 12.0 | 0.05 | 0.11 | 0.10 | 92 | 1013.1 |
| 20260510103107 | 67 | 114 | 6.0 | 10.0 | 0.07 | 0.11 | 0.10 | 92 | 1012.8 |
| 20260510102107 | 67 | 299 | 2.0 | 9.0 | 0.09 | 0.11 | 0.10 | 92 | 1011.4 |
| 20260510101107 | 67 | 217 | 2.0 | 6.0 | 0.08 | 0.10 | 0.09 | 92 | 1011.1 |
| 20260510100107 | 67 | 239 | 2.0 | 8.0 | 0.07 | 0.09 | 0.08 | 92 | 1011.6 |
| 20260510095107 | 68 | 235 | 0.0 | 4.0 | 0.07 | 0.08 | 0.07 | 92 | 1012.9 |
| 20260510094107 | 68 | 188 | 1.0 | 9.0 | 0.05 | 0.06 | 0.05 | 92 | 1013.0 |
| 20260510093107 | 69 | 239 | 3.0 | 5.0 | 0.03 | 0.04 | 0.03 | 92 | 1013.1 |
| 20260510092107 | 69 | 302 | 0.0 | 1.0 | 0.01 | 0.02 | 0.01 | 92 | 1012.8 |
| 20260510091107 | 69 | 302 | 0.0 | 1.0 | 0.01 | 0.02 | 0.01 | 92 | 1012.9 |
| 20260510090107 | 69 | 306 | 0.0 | 2.0 | 0.01 | 0.03 | 0.01 | 92 | 1012.4 |
| 20260510085107 | 69 | 306 | 1.0 | 3.0 | 0.00 | 0.02 | 0.00 | 92 | 1011.8 |
| 20260510084107 | 68 | 67 | 0.0 | 1.0 | 0.00 | 0.02 | 0.00 | 92 | 1012.2 |
| 20260510083107 | 69 | 67 | 0.0 | 2.0 | 0.00 | 0.02 | 0.00 | 92 | 1012.7 |
| 20260510082107 | 68 | 67 | 0.0 | 1.0 | 0.00 | 0.02 | 0.00 | 92 | 1012.3 |
| 20260510081107 | 68 | 67 | 0.0 | 4.0 | 0.00 | 0.02 | 0.00 | 92 | 1011.8 |
| 20260510080107 | 68 | 70 | 3.0 | 5.0 | 0.00 | 0.02 | 0.00 | 92 | 1011.0 |
| 20260510075107 | 67 | 118 | 0.0 | 0.0 | 0.00 | 0.02 | 0.00 | 91 | 1010.8 |
| 20260510074107 | 67 | 118 | 0.0 | 0.0 | 0.00 | 0.02 | 0.00 | 91 | 1010.9 |
| 20260510073107 | 67 | 118 | 0.0 | 0.0 | 0.00 | 0.02 | 0.00 | 91 | 1010.8 |
| 20260510072107 | 67 | 118 | 0.0 | 0.0 | 0.00 | 0.02 | 0.00 | 91 | 1010.3 |
| 20260510071107 | 68 | 118 | 0.0 | 0.0 | 0.00 | 0.02 | 0.00 | 91 | 1010.8 |
| 20260510070107 | 68 | 118 | 0.0 | 1.0 | 0.00 | 0.02 | 0.00 | 90 | 1010.5 |
| 20260510065107 | 68 | 118 | 0.0 | 1.0 | 0.00 | 0.02 | 0.00 | 90 | 1010.8 |
| 20260510064107 | 69 | 118 | 0.0 | 0.0 | 0.00 | 0.02 | 0.00 | 90 | 1010.7 |
| 20260510062107 | 70 | 118 | 0.0 | 0.0 | 0.00 | 0.02 | 0.00 | 89 | 1011.1 |
| 20260510061107 | 70 | 118 | 0.0 | 1.0 | 0.00 | 0.02 | 0.00 | 89 | 1011.0 |
| 20260510060107 | 71 | 118 | 0.0 | 2.0 | 0.00 | 0.02 | 0.00 | 89 | 1010.6 |
| 20260510055107 | 71 | 118 | 0.0 | 3.0 | 0.00 | 0.02 | 0.00 | 89 | 1010.5 |
| 20260510054107 | 71 | 110 | 0.0 | 7.0 | 0.00 | 0.02 | 0.00 | 89 | 1010.6 |
| 20260510053107 | 72 | 84 | 0.0 | 3.0 | 0.00 | 0.02 | 0.00 | 89 | 1010.5 |
| 20260510051107 | 72 | 87 | 2.0 | 4.0 | 0.00 | 0.02 | 0.00 | 89 | 1009.5 |
| 20260510050107 | 72 | 91 | 1.0 | 4.0 | 0.00 | 0.02 | 0.00 | 89 | 1009.8 |
| 20260510045107 | 72 | 93 | 2.0 | 6.0 | 0.00 | 0.02 | 0.02 | 90 | 1009.7 |
| 20260510044107 | 72 | 104 | 3.0 | 4.0 | 0.00 | 0.02 | 0.02 | 90 | 1009.3 |
| 20260510043107 | 72 | 88 | 2.0 | 6.0 | 0.00 | 0.02 | 0.02 | 91 | 1009.2 |
| 20260510042107 | 71 | 132 | 0.0 | 0.0 | 0.00 | 0.02 | 0.02 | 91 | 1009.0 |
| 20260510041107 | 71 | 132 | 0.0 | 2.0 | 0.00 | 0.02 | 0.02 | 90 | 1008.9 |
| 20260510040107 | 71 | 132 | 0.0 | 1.0 | 0.00 | 0.02 | 0.02 | 89 | 1008.7 |
| 20260510035107 | 71 | 132 | 0.0 | 2.0 | 0.00 | 0.02 | 0.02 | 90 | 1008.7 |
| 20260510034107 | 71 | 132 | 0.0 | 2.0 | 0.00 | 0.02 | 0.02 | 90 | 1008.5 |
| 20260510033107 | 71 | 132 | 1.0 | 2.0 | 0.00 | 0.02 | 0.02 | 90 | 1008.4 |
| 20260510032107 | 71 | 132 | 0.0 | 0.0 | 0.00 | 0.02 | 0.02 | 91 | 1008.5 |
| 20260510030109 | 70 | 132 | 0.0 | 0.0 | 0.00 | 0.02 | 0.02 | 90 | 1008.3 |
| 20260510024107 | 71 | 132 | 0.0 | 0.0 | 0.00 | 0.02 | 0.02 | 89 | 1007.9 |
| 20260510023107 | 71 | 132 | 0.0 | 0.0 | 0.00 | 0.02 | 0.02 | 89 | 1007.9 |
| 20260510021107 | 72 | 132 | 0.0 | 0.0 | 0.00 | 0.02 | 0.02 | 88 | 1007.8 |
| 20260510020107 | 73 | 132 | 0.0 | 0.0 | 0.00 | 0.02 | 0.02 | 88 | 1007.6 |
| 20260510015107 | 73 | 132 | 0.0 | 0.0 | 0.00 | 0.02 | 0.02 | 87 | 1007.5 |
| 20260510013107 | 74 | 132 | 0.0 | 0.0 | 0.00 | 0.02 | 0.02 | 86 | 1007.4 |
| 20260510012107 | 75 | 132 | 0.0 | 0.0 | 0.00 | 0.02 | 0.02 | 85 | 1007.3 |
| 20260510011107 | 76 | 132 | 0.0 | 0.0 | 0.00 | 0.02 | 0.02 | 85 | 1007.2 |
| 20260510010107 | 77 | 132 | 0.0 | 0.0 | 0.00 | 0.02 | 0.02 | 84 | 1007.0 |
| 20260510005107 | 77 | 132 | 0.0 | 0.0 | 0.00 | 0.02 | 0.02 | 83 | 1006.9 |
| 20260510004107 | 78 | 132 | 0.0 | 0.0 | 0.00 | 0.02 | 0.02 | 82 | 1006.9 |
| 20260510002107 | 80 | 132 | 0.0 | 0.0 | 0.00 | 0.02 | 0.02 | 80 | 1006.6 |
| 20260510001107 | 80 | 132 | 0.0 | 0.0 | 0.00 | 0.02 | 0.02 | 79 | 1006.5 |
| 20260510000107 | 81 | 132 | 0.0 | 0.0 | 0.00 | 0.02 | 0.02 | 78 | 1006.6 |
| 20260509235107 | 81 | 132 | 0.0 | 0.0 | 0.00 | 0.02 | 0.02 | 76 | 1006.5 |
| 20260509234107 | 82 | 132 | 0.0 | 1.0 | 0.00 | 0.02 | 0.02 | 75 | 1006.6 |
| 20260509233107 | 82 | 132 | 0.0 | 2.0 | 0.00 | 0.02 | 0.02 | 73 | 1006.6 |
| 20260509232107 | 83 | 132 | 0.0 | 3.0 | 0.00 | 0.02 | 0.02 | 70 | 1006.6 |
| 20260509231107 | 83 | 132 | 1.0 | 3.0 | 0.00 | 0.02 | 0.02 | 69 | 1006.6 |
| 20260509230107 | 83 | 134 | 2.0 | 5.0 | 0.00 | 0.02 | 0.02 | 69 | 1006.5 |
| 20260509224107 | 82 | 84 | 1.0 | 2.0 | 0.00 | 0.02 | 0.02 | 71 | 1006.4 |
| 20260509221107 | 83 | 94 | 6.0 | 8.0 | 0.00 | 0.02 | 0.02 | 68 | 1006.4 |
| 20260509220107 | 84 | 87 | 1.0 | 3.0 | 0.00 | 0.02 | 0.02 | 68 | 1006.5 |
| 20260509215107 | 85 | 90 | 1.0 | 3.0 | 0.00 | 0.02 | 0.02 | 67 | 1006.6 |
| 20260509214107 | 85 | 89 | 1.0 | 4.0 | 0.00 | 0.02 | 0.02 | 66 | 1006.6 |
| 20260509213107 | 85 | 204 | 1.0 | 7.0 | 0.00 | 0.02 | 0.02 | 63 | 1006.8 |
| 20260509212107 | 85 | 22 | 2.0 | 4.0 | 0.00 | 0.02 | 0.02 | 65 | 1006.9 |
| 20260509211107 | 85 | 117 | 3.0 | 5.0 | 0.00 | 0.02 | 0.02 | 68 | 1007.0 |
| 20260509210107 | 85 | 177 | 0.0 | 4.0 | 0.00 | 0.02 | 0.02 | 70 | 1007.1 |
| 20260509205107 | 84 | 251 | 2.0 | 6.0 | 0.00 | 0.02 | 0.02 | 69 | 1007.3 |
| 20260509203107 | 83 | 271 | 4.0 | 6.0 | 0.00 | 0.02 | 0.02 | 73 | 1007.4 |
| 20260509202107 | 82 | 219 | 3.0 | 7.0 | 0.00 | 0.02 | 0.02 | 74 | 1007.5 |
| 20260509201107 | 81 | 74 | 0.0 | 3.0 | 0.00 | 0.02 | 0.02 | 80 | 1007.6 |
| 20260509200107 | 80 | 74 | 0.0 | 0.0 | 0.00 | 0.02 | 0.02 | 79 | 1007.8 |
| 20260509195107 | 80 | 74 | 0.0 | 0.0 | 0.00 | 0.02 | 0.02 | 79 | 1007.9 |
| 20260509194107 | 80 | 74 | 0.0 | 1.0 | 0.00 | 0.02 | 0.02 | 77 | 1008.0 |
| 20260509193107 | 80 | 74 | 0.0 | 4.0 | 0.00 | 0.02 | 0.02 | 77 | 1008.0 |
| 20260509192107 | 81 | 82 | 4.0 | 5.0 | 0.00 | 0.02 | 0.02 | 74 | 1008.1 |
| 20260509185107 | 81 | 205 | 1.0 | 4.0 | 0.00 | 0.02 | 0.02 | 72 | 1008.2 |
| 20260509184107 | 82 | 48 | 0.0 | 2.0 | 0.00 | 0.02 | 0.02 | 73 | 1008.2 |
| 20260509182107 | 82 | 88 | 4.0 | 8.0 | 0.00 | 0.02 | 0.02 | 71 | 1008.3 |
| 20260509181107 | 82 | 39 | 2.0 | 4.0 | 0.00 | 0.02 | 0.02 | 75 | 1008.3 |
| 20260509180107 | 81 | 211 | 1.0 | 3.0 | 0.00 | 0.02 | 0.02 | 75 | 1008.4 |
| 20260509175107 | 81 | 111 | 2.0 | 6.0 | 0.00 | 0.02 | 0.02 | 74 | 1008.6 |
| 20260509174107 | 80 | 45 | 2.0 | 4.0 | 0.00 | 0.02 | 0.02 | 78 | 1008.7 |
| 20260509172107 | 78 | 238 | 1.0 | 4.0 | 0.00 | 0.02 | 0.02 | 80 | 1008.7 |
| 20260509171107 | 78 | 238 | 0.0 | 3.0 | 0.00 | 0.02 | 0.02 | 81 | 1008.8 |
| 20260509164107 | 77 | 223 | 0.0 | 4.0 | 0.00 | 0.02 | 0.02 | 81 | 1008.9 |
| 20260509163107 | 77 | 292 | 3.0 | 5.0 | 0.00 | 0.02 | 0.02 | 84 | 1009.0 |
| 20260509162107 | 77 | 292 | 0.0 | 5.0 | 0.00 | 0.02 | 0.02 | 83 | 1009.0 |
| 20260509161107 | 77 | 319 | 1.0 | 4.0 | 0.00 | 0.02 | 0.02 | 84 | 1008.9 |
| 20260509160107 | 76 | 101 | 0.0 | 3.0 | 0.00 | 0.02 | 0.02 | 84 | 1009.0 |
| 20260509155107 | 76 | 252 | 1.0 | 3.0 | 0.00 | 0.02 | 0.02 | 85 | 1008.9 |
| 20260509154107 | 74 | 302 | 0.0 | 3.0 | 0.00 | 0.02 | 0.02 | 87 | 1008.8 |
| 20260509153107 | 73 | 302 | 2.0 | 3.0 | 0.00 | 0.02 | 0.02 | 86 | 1008.9 |